Location: Arboyeti
(42.1122°N, 44.6017°E)
Time: 04:23:20
(UTC+00:00)

ERS-1 Rocket - Pass Details

Date: 19 April 2021
Orbit: 753 x 758 km, 98.4° (Epoch: 09 May)

Event Time Altitude Azimuth Distance (km) Brightness Sun altitude
Exits shadow 18:34:29 70° 39° (NE) 804 3.0 -26.8°
Drops below altitude 10° 18:39:09 10° 351° (N) 2,286 6.2 -27.4°
Sets 18:41:27 0° 349° (N) 3,215 7.2 -27.6°
